Tracking 33747 objects as of 12-Apr-2026
HD Live streaming from Space Station
objects crossing your sky now

STARLINK-36814

Track STARLINK-36814 now!
10-day predictions
STARLINK-36814 is classified as:


NORAD ID: 67904
Int'l Code: 2026-036A
Perigee: 487.1 km
Apogee: 488.2 km
Inclination: 43.0 °
Period: 94.2 minutes
Semi major axis: 6858 km
RCS: Unknown
Launch date: February 22, 2026
Source: United States (US)
Launch site: AIR FORCE EASTERN TEST RANGE (AFETR)
Your satellite tracking list
Your tracking list is empty




NASA's NSSDC Master Catalog

Two Line Element Set (TLE):
1 67904U 26036A   26101.89381149  .00016970  00000-0  60902-3 0  9999
2 67904  42.9986  58.3377 0000805 263.6448  96.4313 15.28419934  8791
Source of the keplerian elements: AFSPC